Simultaneous Nadir Overpasses (SNOs) Predictions

Prediction of SNOs between AQUA and GOES-15 Satellite Orbit:

Table of predicted SNOs for the next 14.0 days since TLE Epoch: 10/26/2018
Index Date Time (AQUA) AQUA Lat,Lon GOES-15 Lat,Lon Distance(km) Time Diff (sec)
1 10/27/2018 22:35:01 -0.13,-134.86 -0.18,-135.27 45.97 80
2 10/29/2018 22:22:49 0.50,-131.90 -0.19,-135.20 375.09 80
3 10/30/2018 10:44:05 0.54,-137.07 0.16,-135.24 207.25 80
4 11/01/2018 10:31:53 -0.09,-134.11 0.16,-135.17 120.96 80
5 11/01/2018 22:53:17 -1.03,-139.30 -0.14,-135.08 479.31 80
6 11/03/2018 10:19:40 -0.66,-131.14 0.16,-135.09 448.90 80
7 11/03/2018 22:41:04 -0.45,-136.33 -0.14,-135.00 151.21 80
8 11/05/2018 22:28:52 0.19,-133.37 -0.14,-134.92 176.68 80
9 11/06/2018 10:50:08 0.86,-138.54 0.12,-134.97 404.67 80
10 11/08/2018 10:37:55 0.28,-135.57 0.12,-134.89 77.47 80




NCC Satellite Simultaneous Nadir Overpasses (SNOs) Prediction Service
